Ely, NV

9:38 AM PST on January 23, 2017 (GMT -0800)
Ely

Weather History for KELY - August, 2012

Change the Weather History Date:

Thursday, August 9, 2012

  Actual Average Record
Temperature  
Mean Temperature 72 °F 68 °F  
Max Temperature 94 °F 87 °F 97 °F (1981)
Min Temperature 49 °F 48 °F 33 °F (2009)
Degree Days  
Heating Degree Days 0 1  
Month to date heating degree days 0 3  
Since 1 June heating degree days 119 201  
Since 1 July heating degree days 3 26  
Cooling Degree Days 7 3  
Month to date cooling degree days 47 32  
Year to date cooling degree days 222 167  
Since 1 June cooling degree days 222 166  
Growing Degree Days 20 (Base 50)    
Moisture  
Dew Point 44 °F    
Average Humidity 58    
Maximum Humidity 100    
Minimum Humidity 15    
Precipitation  
Precipitation T in 0.03 in 1.05 in (1904)
Month to date precipitation 0.33 0.28  
Year to date precipitation 5.38 6.02  
Snow  
Snow 0.00 in 0.00 in 0.00 in (1893)
Month to date snowfall 0.0 0.0  
Since 1 June snowfall T 0.1  
Since 1 July snowfall 0.0 0.0  
Snow Depth 0.00 in    
Sea Level Pressure  
Sea Level Pressure 30.04 in    
Wind  
Wind Speed 7 mph (SSW)    
Max Wind Speed 20 mph    
Max Gust Speed 26 mph    
Visibility 10 miles    
Events Thunderstorm    
T = Trace of Precipitation, MM = Missing Value Source: NWS Daily Summary

Daily Weather History Graph

Daily Weather History Graph

Search for Another Location

Airport or City:

Trip Planner

Search our weather history database for the weather conditions in past years. The results will help you decide how hot, cold, wet, or windy it might be!

Date:

Astronomy

Aug. 09, 2012 Rise Set
Actual Time 5:47 AM PDT 7:41 PM PDT
Civil Twilight 5:18 AM PDT 8:10 PM PDT
Nautical Twilight 4:42 AM PDT 8:46 PM PDT
Astronomical Twilight 4:04 AM PDT 9:24 PM PDT
Moon 11:39 PM PDT (8/9) 1:29 PM PDT (8/9)
Length of Visible Light 14h 52m
Length of Day
13h 54m
Waning Gibbous, 50% of the Moon is Illuminated
Aug 9
Waning Gibbous
Aug 17
New
Aug 24
First Quarter
Aug 31
Full
Sep 8
Last Quarter

Hourly Weather History & Observations

Time (PDT) Temp. Dew Point Humidity Pressure Visibility Wind Dir Wind Speed Gust Speed Precip Events Conditions
12:53 AM 59.0 °F 54.0 °F 83% 30.05 in 10.0 mi WSW 4.6 mph - N/A   Clear
1:53 AM 55.9 °F 52.0 °F 87% 30.05 in 10.0 mi Calm Calm - N/A   Clear
2:53 AM 53.1 °F 51.1 °F 93% 30.04 in 10.0 mi Calm Calm - N/A   Clear
3:53 AM 52.0 °F 50.0 °F 93% 30.06 in 10.0 mi Calm Calm - N/A   Clear
4:53 AM 48.9 °F 48.0 °F 97% 30.07 in 10.0 mi SSE 6.9 mph - N/A   Clear
5:53 AM 48.9 °F 48.9 °F 100% 30.09 in 10.0 mi South 8.1 mph - N/A   Clear
6:53 AM 54.0 °F 51.1 °F 90% 30.10 in 10.0 mi South 6.9 mph - N/A   Clear
7:53 AM 63.0 °F 54.0 °F 72% 30.09 in 10.0 mi South 4.6 mph - N/A   Clear
8:53 AM 71.1 °F 52.0 °F 51% 30.07 in 10.0 mi South 3.5 mph - N/A   Clear
9:53 AM 79.0 °F 51.1 °F 38% 30.03 in 10.0 mi Calm Calm - N/A   Clear
10:53 AM 84.9 °F 46.9 °F 27% 30.00 in 10.0 mi Variable 3.5 mph - N/A   Clear
11:53 AM 88.0 °F 45.0 °F 22% 29.97 in 10.0 mi Calm Calm - N/A   Clear
12:53 PM 89.1 °F 37.9 °F 16% 29.96 in 10.0 mi South 6.9 mph - N/A   Scattered Clouds
1:05 PM 89.6 °F 39.2 °F 17% 30.28 in 10.0 mi SSW 6.9 mph - N/A Thunderstorm Thunderstorm
1:20 PM 89.6 °F 37.4 °F 16% 30.27 in 10.0 mi SSW 10.4 mph - N/A   Partly Cloudy
1:35 PM 89.6 °F 37.4 °F 16% 30.27 in 10.0 mi SSW 10.4 mph 20.7 mph N/A Thunderstorm Thunderstorm
1:53 PM 90.0 °F 42.1 °F 19% 29.95 in 10.0 mi SW 10.4 mph 18.4 mph N/A Thunderstorm Thunderstorm
2:53 PM 91.9 °F 37.9 °F 15% 29.92 in 10.0 mi WSW 11.5 mph 18.4 mph N/A Thunderstorm Thunderstorm
3:29 PM 91.4 °F 39.2 °F 16% 30.23 in 10.0 mi South 8.1 mph - N/A   Clear
3:53 PM 91.0 °F 43.0 °F 19% 29.91 in 10.0 mi NNE 12.7 mph 17.3 mph N/A   Partly Cloudy
4:20 PM 89.6 °F 42.8 °F 20% 30.22 in 10.0 mi NNE 8.1 mph 21.9 mph N/A Thunderstorm Thunderstorm
4:53 PM 89.1 °F 42.1 °F 19% 29.91 in 10.0 mi ENE 5.8 mph - N/A   Clear
5:53 PM 88.0 °F 42.1 °F 20% 29.89 in 10.0 mi North 9.2 mph - N/A   Clear
6:53 PM 86.0 °F 41.0 °F 20% 29.88 in 10.0 mi North 5.8 mph - N/A   Partly Cloudy
7:53 PM 78.1 °F 41.0 °F 27% 29.89 in 10.0 mi SSE 3.5 mph - N/A   Clear
8:53 PM 73.9 °F 41.0 °F 30% 29.88 in 10.0 mi SSE 5.8 mph - N/A Thunderstorm Thunderstorm
9:27 PM 71.6 °F 41.0 °F 33% 30.21 in 10.0 mi South 8.1 mph - N/A Thunderstorm Thunderstorm
9:53 PM 68.0 °F 42.1 °F 39% 29.89 in 10.0 mi SSE 10.4 mph - N/A Thunderstorm Thunderstorm
10:11 PM 69.8 °F 42.8 °F 38% 30.22 in 10.0 mi South 9.2 mph - N/A   Clear
10:30 PM 78.8 °F 41.0 °F 26% 30.23 in 10.0 mi West 11.5 mph 19.6 mph N/A Thunderstorm Thunderstorm
10:53 PM 79.0 °F 42.1 °F 27% 29.87 in 10.0 mi West 17.3 mph 25.3 mph N/A Thunderstorm Thunderstorm
11:17 PM 75.2 °F 42.8 °F 31% 30.26 in 10.0 mi Variable 5.8 mph 17.3 mph N/A Thunderstorm Thunderstorm
11:53 PM 77.0 °F 43.0 °F 30% 29.92 in 10.0 mi South 12.7 mph 24.2 mph N/A Thunderstorm Thunderstorm